C4984 Weather Reports


Display with metric or nautical units.
time (UTC)temp
F
wind
direction
speed
MPH
gust
MPH
rain 1hr
in
rain 24hr
in
rain mn
in
humidity
%
barometer
mb
20260902092525 74 68 0.0 0.0 0.00 0.00 0.00 95 1011.7
20260902091543 74 68 0.0 0.0 0.00 0.00 0.00 95 1011.7
20260902090533 74 68 0.0 0.0 0.00 0.00 0.00 94 1011.7
20260902085516 74 68 0.0 1.0 0.00 0.00 0.00 94 1011.7
20260902084522 74 96 0.0 0.0 0.00 0.00 0.00 94 1011.7
20260902083530 75 96 0.0 0.0 0.00 0.00 0.00 94 1011.6
20260902080258 75 125 0.0 0.0 0.00 0.00 0.00 94 1011.6
20260902075235 75 125 0.0 0.0 0.00 0.00 0.00 93 1011.6
20260902074237 75 125 0.0 0.0 0.00 0.00 0.00 93 1011.8
20260902072057 75 125 0.0 0.0 0.00 0.00 0.00 93 1011.8
20260902071047 75 125 0.0 0.0 0.00 0.00 0.00 93 1011.7
20260902070039 75 124 0.0 0.0 0.00 0.00 0.00 92 1011.7
20260902063956 76 125 0.0 0.0 0.00 0.00 0.00 93 1012.0
20260902063002 76 125 0.0 0.0 0.00 0.00 0.00 92 1012.0
20260902055745 76 125 0.0 0.0 0.00 0.00 0.00 90 1012.1
20260902053637 77 125 0.0 0.0 0.00 0.00 0.00 90 1011.8
20260902052615 77 125 0.0 0.0 0.00 0.00 0.00 90 1011.7
20260902051616 77 125 0.0 0.0 0.00 0.00 0.00 89 1011.7
20260902050554 77 125 0.0 0.0 0.00 0.00 0.00 89 1011.6
20260902045523 77 125 0.0 0.0 0.00 0.00 0.00 89 1011.5
20260902044506 77 125 0.0 0.0 0.00 0.00 0.00 89 1011.5
20260902043435 77 125 0.0 0.0 0.00 0.00 0.00 88 1011.4
20260902042429 77 125 0.0 0.0 0.00 0.00 0.00 88 1011.2
20260902041405 77 125 0.0 0.0 0.00 0.00 0.00 88 1011.2
20260902040427 77 125 0.0 0.0 0.00 0.00 0.00 88 1011.2
20260902035436 78 125 0.0 0.0 0.00 0.00 0.00 88 1011.2
20260902034419 78 125 0.0 0.0 0.00 0.00 0.00 86 1011.2
20260902032351 78 125 0.0 0.0 0.00 0.00 0.00 85 1011.3
20260902031403 78 125 0.0 0.0 0.00 0.00 0.00 85 1011.3
20260902030413 78 125 0.0 0.0 0.00 0.00 0.00 85 1011.3
20260902025406 79 125 0.0 0.0 0.00 0.00 0.00 84 1011.4
20260902023237 79 125 0.0 0.0 0.00 0.00 0.00 84 1011.4
20260902022225 79 125 0.0 0.0 0.00 0.00 0.00 84 1011.3
20260902021237 79 125 0.0 0.0 0.00 0.00 0.00 83 1011.3
20260902020207 80 125 0.0 0.0 0.00 0.00 0.00 83 1011.3
20260902014054 80 125 0.0 0.0 0.00 0.00 0.00 82 1010.8
20260902013116 80 125 0.0 0.0 0.00 0.00 0.00 80 1010.8
20260902012101 81 125 0.0 0.0 0.00 0.00 0.00 79 1010.7
20260902010017 82 125 0.0 0.0 0.00 0.00 0.00 78 1010.7
20260902005015 82 125 0.0 0.0 0.00 0.00 0.00 79 1010.6
20260902004022 83 125 0.0 0.0 0.00 0.00 0.00 77 1010.3
20260902003028 83 125 0.0 0.0 0.00 0.00 0.00 77 1010.3
20260902002020 84 125 0.0 0.0 0.00 0.00 0.00 77 1010.3
20260902000958 85 125 0.0 0.0 0.00 0.00 0.00 75 1010.4
20260901235951 86 125 0.0 0.0 0.00 0.00 0.00 72 1010.4
20260901235015 87 125 0.0 0.0 0.00 0.00 0.00 71 1010.5
20260901233943 88 125 0.0 0.0 0.00 0.00 0.00 65 1010.7
20260901232954 90 125 0.0 0.0 0.00 0.00 0.00 62 1010.7
20260901230843 93 89 0.0 0.0 0.00 0.00 0.00 56 1010.7
20260901225856 96 89 0.0 0.0 0.00 0.00 0.00 53 1010.6
20260901224823 98 89 0.0 0.0 0.00 0.00 0.00 51 1010.6
20260901223831 98 89 0.0 0.0 0.00 0.00 0.00 52 1010.6
20260901222810 98 89 0.0 0.0 0.00 0.00 0.00 52 1010.7
20260901221736 98 89 0.0 0.0 0.00 0.00 0.00 51 1010.7
20260901215550 98 222 0.0 3.0 0.00 0.00 0.00 50 1010.7
20260901214601 97 190 0.0 1.0 0.00 0.00 0.00 50 1010.7
20260901213622 97 205 0.0 0.0 0.00 0.00 0.00 48 1010.7
20260901212643 97 32 0.0 0.0 0.00 0.00 0.00 48 1010.7
20260901211655 98 176 0.0 1.0 0.00 0.00 0.00 46 1010.7
20260901210650 98 188 0.0 2.0 0.00 0.00 0.00 50 1010.7
20260901203347 96 264 0.0 0.0 0.00 0.00 0.00 51 1011.0
20260901202316 97 98 0.0 1.0 0.00 0.00 0.00 47 1011.1
20260901201321 98 124 0.0 6.0 0.00 0.00 0.00 48 1011.1
20260901200258 98 330 1.0 6.0 0.00 0.00 0.00 47 1011.1
20260901194104 98 314 0.0 2.0 0.00 0.00 0.00 49 1011.5
20260901193107 97 1 0.0 3.0 0.00 0.00 0.00 48 1011.5
20260901192103 97 47 0.0 3.0 0.00 0.00 0.00 49 1011.7
20260901191108 97 321 0.0 4.0 0.00 0.00 0.00 46 1011.9
20260901185027 96 312 1.0 5.0 0.00 0.00 0.00 52 1012.1
20260901184020 97 54 0.0 3.0 0.00 0.00 0.00 52 1012.1
20260901183033 96 98 1.0 3.0 0.00 0.00 0.00 49 1012.1
20260901182049 97 94 0.0 2.0 0.00 0.00 0.00 50 1012.1
20260901181044 96 6 0.0 4.0 0.00 0.00 0.00 48 1012.2
20260901180057 96 268 0.0 5.0 0.00 0.00 0.00 49 1012.2
20260901175110 96 238 1.0 5.0 0.00 0.00 0.00 53 1012.2
20260901174104 95 68 0.0 3.0 0.00 0.00 0.00 53 1012.2
20260901173040 94 175 0.0 3.0 0.00 0.00 0.00 53 1012.2
20260901172016 94 56 0.0 3.0 0.00 0.00 0.00 57 1012.2
20260901171031 94 172 1.0 3.0 0.00 0.00 0.00 57 1012.4
20260901170003 94 111 0.0 1.0 0.00 0.00 0.00 59 1012.4
20260901165012 93 195 0.0 2.0 0.00 0.00 0.00 59 1012.6
20260901163945 93 51 1.0 5.0 0.00 0.00 0.00 65 1012.7
20260901162932 93 224 0.0 1.0 0.00 0.00 0.00 60 1012.7
20260901161919 93 137 0.0 2.0 0.00 0.00 0.00 63 1012.8
20260901160932 93 131 0.0 2.0 0.00 0.00 0.00 65 1013.1
20260901155917 91 192 0.0 4.0 0.00 0.00 0.00 69 1013.1
20260901154939 91 340 0.0 4.0 0.00 0.00 0.00 67 1013.3
20260901154002 90 141 0.0 3.0 0.00 0.00 0.00 67 1013.4
20260901153015 90 90 0.0 3.0 0.00 0.00 0.00 69 1013.4
20260901151956 90 77 0.0 2.0 0.00 0.00 0.00 71 1013.6
20260901150931 89 197 0.0 2.0 0.00 0.00 0.00 72 1013.8
20260901144837 88 137 0.0 2.0 0.00 0.00 0.00 73 1013.8
20260901143827 87 115 0.0 2.0 0.00 0.00 0.00 74 1013.8
20260901141659 85 124 0.0 2.0 0.00 0.00 0.00 78 1013.8
20260901140724 84 112 0.0 2.0 0.00 0.00 0.00 80 1013.7
20260901134534 80 56 0.0 1.0 0.00 0.00 0.00 87 1013.6
20260901133513 79 44 0.0 2.0 0.00 0.00 0.00 89 1013.6
20260901132445 78 139 0.0 0.0 0.00 0.00 0.00 89 1013.6
20260901131434 78 181 0.0 2.0 0.00 0.00 0.00 90 1013.6
20260901130450 77 104 0.0 2.0 0.00 0.00 0.00 92 1013.5
20260901125441 76 117 0.0 0.0 0.00 0.00 0.00 93 1013.6
20260901124438 76 103 0.0 1.0 0.00 0.00 0.00 94 1013.6
20260901123502 75 115 0.0 1.0 0.00 0.00 0.00 95 1013.5
20260901122508 75 135 0.0 1.0 0.00 0.00 0.00 95 1013.5
20260901120409 74 7 0.0 2.0 0.00 0.00 0.00 96 1013.5
20260901115348 74 242 0.0 0.0 0.00 0.00 0.00 97 1013.0
20260901113246 73 134 0.0 0.0 0.00 0.00 0.00 97 1012.9
20260901112244 73 30 0.0 0.0 0.00 0.00 0.00 96 1012.8
20260901111241 73 30 0.0 0.0 0.00 0.00 0.00 96 1012.8
20260901110249 73 30 0.0 0.0 0.00 0.00 0.00 95 1012.8
20260901101854 73 30 0.0 0.0 0.00 0.00 0.00 95 1012.3
20260901100837 73 30 0.0 0.0 0.00 0.00 0.00 94 1012.4
20260901095813 73 30 0.0 0.0 0.00 0.00 0.00 94 1012.2
20260901094820 73 30 0.0 0.0 0.00 0.00 0.00 94 1012.2
20260901093836 74 30 0.0 0.0 0.00 0.00 0.00 95 1012.2
20260901092847 74 30 0.0 0.0 0.00 0.00 0.00 94 1012.2